• In United Kingdom
  • List of Countries
  • For 7 days
  • Water Temperature
  • Satellite Maps
  • Weather Map
  • Weather Widgets
  • user-avatar
    Login

    Hourly Weather Elbasan

    Today, 20 August, Sunday

    Time Temperature Precipitation Wind Pressure Humidity
    00:00 +25°C° 0 mm 1 mps 735 mmHg 51%
    01:00 +25°C° 0 mm 1 mps 734 mmHg 49%
    02:00 +24°C° 0 mm 1 mps 734 mmHg 50%
    03:00 +24°C° 0 mm 1 mps 734 mmHg 50%
    04:00 +24°C° 0 mm 1 mps 734 mmHg 50%
    05:00 +25°C° 0 mm 1 mps 734 mmHg 47%
    06:00 +27°C° 0 mm 1 mps 734 mmHg 43%
    07:00 +29°C° 0 mm 1 mps 734 mmHg 39%
    08:00 +31°C° 0 mm 1 mps 734 mmHg 34%
    09:00 +34°C° 0 mm 2 mps 734 mmHg 28%
    10:00 +35°C° 0 mm 2 mps 734 mmHg 23%
    11:00 +36°C° 0 mm 3 mps 734 mmHg 22%
    12:00 +36°C° 0 mm 3 mps 734 mmHg 22%
    13:00 +37°C° 0 mm 4 mps 733 mmHg 21%
    14:00 +36°C° 0 mm 4 mps 733 mmHg 24%
    15:00 +35°C° 0 mm 4 mps 733 mmHg 26%
    16:00 +35°C° 0 mm 4 mps 732 mmHg 29%
    17:00 +31°C° 0 mm 3 mps 732 mmHg 36%
    18:00 +29°C° 0 mm 2 mps 732 mmHg 44%
    19:00 +26°C° 0 mm 1 mps 732 mmHg 52%
    20:00 +25°C° 0 mm 1 mps 733 mmHg 54%
    21:00 +25°C° 0 mm 1 mps 733 mmHg 57%
    22:00 +24°C° 0 mm 1 mps 733 mmHg 60%
    23:00 +24°C° 0.5 mm 1 mps 733 mmHg 63%

    Tomorrow, 21 August, Monday

    Time Temperature Precipitation Wind Pressure Humidity
    00:00 +23°C° 0.5 mm 1 mps 733 mmHg 65%
    01:00 +23°C° 0.5 mm 1 mps 733 mmHg 68%
    02:00 +22°C° 0.6 mm 1 mps 733 mmHg 71%
    03:00 +22°C° 0.6 mm 1 mps 733 mmHg 74%
    04:00 +21°C° 0.6 mm 2 mps 733 mmHg 77%
    05:00 +21°C° 0.4 mm 2 mps 733 mmHg 76%
    06:00 +23°C° 0.4 mm 2 mps 733 mmHg 75%
    07:00 +23°C° 0.4 mm 2 mps 733 mmHg 74%
    08:00 +26°C° 0 mm 2 mps 733 mmHg 65%
    09:00 +28°C° 0 mm 2 mps 734 mmHg 56%
    10:00 +30°C° 0 mm 2 mps 734 mmHg 47%
    11:00 +30°C° 0.2 mm 2 mps 733 mmHg 44%
    12:00 +31°C° 0.2 mm 3 mps 733 mmHg 42%
    13:00 +31°C° 0.2 mm 3 mps 733 mmHg 40%
    14:00 +32°C° 0.2 mm 4 mps 733 mmHg 41%
    15:00 +30°C° 0.2 mm 4 mps 733 mmHg 43%
    16:00 +30°C° 0.2 mm 4 mps 733 mmHg 44%
    17:00 +28°C° 0.1 mm 4 mps 733 mmHg 50%
    18:00 +26°C° 0.1 mm 3 mps 733 mmHg 56%
    19:00 +24°C° 0.1 mm 3 mps 733 mmHg 62%
    20:00 +22°C° 0 mm 3 mps 734 mmHg 65%
    21:00 +23°C° 0 mm 2 mps 734 mmHg 68%
    22:00 +21°C° 0 mm 2 mps 734 mmHg 71%
    23:00 +20°C° 0 mm 2 mps 734 mmHg 72%

    Day after tomorrow, 22 August, Tuesday

    Time Temperature Precipitation Wind Pressure Humidity
    00:00 +20°C° 0 mm 2 mps 734 mmHg 72%
    01:00 +19°C° 0 mm 2 mps 734 mmHg 72%
    02:00 +19°C° 0 mm 3 mps 734 mmHg 72%
    03:00 +18°C° 0 mm 3 mps 734 mmHg 72%
    04:00 +18°C° 0 mm 3 mps 734 mmHg 73%
    05:00 +19°C° 0 mm 3 mps 735 mmHg 66%
    06:00 +20°C° 0 mm 3 mps 735 mmHg 60%
    07:00 +22°C° 0 mm 3 mps 735 mmHg 54%
    08:00 +25°C° 0 mm 3 mps 735 mmHg 47%
    09:00 +26°C° 0 mm 3 mps 735 mmHg 40%
    10:00 +28°C° 0 mm 3 mps 735 mmHg 34%
    11:00 +29°C° 0 mm 3 mps 735 mmHg 30%
    12:00 +30°C° 0 mm 3 mps 735 mmHg 27%
    13:00 +31°C° 0 mm 3 mps 735 mmHg 24%
    14:00 +31°C° 0 mm 3 mps 735 mmHg 24%
    15:00 +32°C° 0 mm 4 mps 734 mmHg 23%
    16:00 +32°C° 0 mm 4 mps 734 mmHg 23%
    17:00 +28°C° 0 mm 4 mps 734 mmHg 29%
    18:00 +26°C° 0 mm 3 mps 734 mmHg 36%
    19:00 +23°C° 0 mm 2 mps 735 mmHg 42%
    20:00 +21°C° 0 mm 2 mps 735 mmHg 43%
    21:00 +20°C° 0 mm 2 mps 735 mmHg 44%
    22:00 +20°C° 0 mm 2 mps 736 mmHg 45%
    23:00 +19°C° 0 mm 2 mps 736 mmHg 45%

    23 August, Wednesday

    Time Temperature Precipitation Wind Pressure Humidity
    00:00 +19°C° 0 mm 2 mps 736 mmHg 46%
    01:00 +18°C° 0 mm 2 mps 736 mmHg 46%
    02:00 +18°C° 0 mm 2 mps 736 mmHg 47%
    03:00 +18°C° 0 mm 2 mps 735 mmHg 48%
    04:00 +17°C° 0 mm 2 mps 735 mmHg 49%
    05:00 +19°C° 0 mm 2 mps 736 mmHg 46%
    06:00 +21°C° 0 mm 2 mps 736 mmHg 43%
    07:00 +24°C° 0 mm 2 mps 736 mmHg 40%
    08:00 +26°C° 0 mm 1 mps 737 mmHg 35%
    09:00 +28°C° 0 mm 1 mps 737 mmHg 30%
    10:00 +31°C° 0 mm 1 mps 737 mmHg 25%
    11:00 +32°C° 0 mm 2 mps 737 mmHg 23%
    12:00 +32°C° 0 mm 2 mps 737 mmHg 22%
    13:00 +34°C° 0 mm 3 mps 736 mmHg 20%
    14:00 +33°C° 0 mm 4 mps 736 mmHg 21%
    15:00 +33°C° 0 mm 4 mps 736 mmHg 22%
    16:00 +32°C° 0 mm 4 mps 736 mmHg 24%
    17:00 +29°C° 0 mm 3 mps 736 mmHg 30%
    18:00 +26°C° 0 mm 2 mps 736 mmHg 36%
    19:00 +23°C° 0 mm 2 mps 736 mmHg 43%
    20:00 +23°C° 0 mm 1 mps 737 mmHg 43%
    21:00 +22°C° 0 mm 1 mps 737 mmHg 43%
    22:00 +21°C° 0 mm 1 mps 737 mmHg 44%
    23:00 +21°C° 0 mm 1 mps 737 mmHg 43%

    24 August, Thursday

    Time Temperature Precipitation Wind Pressure Humidity
    00:00 +21°C° 0 mm 1 mps 737 mmHg 43%
    01:00 +19°C° 0 mm 2 mps 737 mmHg 43%
    02:00 +19°C° 0 mm 2 mps 737 mmHg 43%
    03:00 +19°C° 0 mm 2 mps 737 mmHg 43%
    04:00 +19°C° 0 mm 2 mps 737 mmHg 42%
    05:00 +20°C° 0 mm 2 mps 738 mmHg 40%
    06:00 +23°C° 0 mm 2 mps 738 mmHg 37%
    07:00 +25°C° 0 mm 2 mps 738 mmHg 34%
    08:00 +27°C° 0 mm 2 mps 738 mmHg 30%
    09:00 +30°C° 0 mm 1 mps 738 mmHg 25%
    10:00 +32°C° 0 mm 1 mps 739 mmHg 21%
    11:00 +34°C° 0 mm 2 mps 738 mmHg 20%
    12:00 +35°C° 0 mm 2 mps 738 mmHg 19%
    13:00 +36°C° 0 mm 3 mps 738 mmHg 18%
    14:00 +35°C° 0 mm 3 mps 737 mmHg 19%
    15:00 +35°C° 0 mm 3 mps 737 mmHg 20%
    16:00 +35°C° 0 mm 3 mps 737 mmHg 20%
    17:00 +31°C° 0 mm 2 mps 737 mmHg 26%
    18:00 +28°C° 0 mm 2 mps 737 mmHg 32%
    19:00 +25°C° 0 mm 1 mps 737 mmHg 38%
    20:00 +24°C° 0 mm 1 mps 738 mmHg 38%
    21:00 +24°C° 0 mm 1 mps 738 mmHg 37%
    22:00 +23°C° 0 mm 1 mps 738 mmHg 37%
    23:00 +23°C° 0 mm 1 mps 738 mmHg 36%

    25 August, Friday

    Time Temperature Precipitation Wind Pressure Humidity
    00:00 +23°C° 0 mm 2 mps 738 mmHg 36%
    01:00 +21°C° 0 mm 2 mps 738 mmHg 35%
    02:00 +21°C° 0 mm 2 mps 738 mmHg 36%
    03:00 +21°C° 0 mm 2 mps 738 mmHg 36%
    04:00 +20°C° 0 mm 2 mps 738 mmHg 36%
    05:00 +23°C° 0 mm 2 mps 738 mmHg 35%
    06:00 +25°C° 0 mm 2 mps 738 mmHg 33%
    07:00 +26°C° 0 mm 2 mps 739 mmHg 32%
    08:00 +29°C° 0 mm 2 mps 739 mmHg 28%
    09:00 +31°C° 0 mm 1 mps 739 mmHg 23%
    10:00 +34°C° 0 mm 1 mps 739 mmHg 19%
    11:00 +35°C° 0 mm 2 mps 739 mmHg 18%
    12:00 +36°C° 0 mm 2 mps 738 mmHg 17%
    13:00 +37°C° 0 mm 3 mps 738 mmHg 16%
    14:00 +37°C° 0 mm 3 mps 738 mmHg 17%
    15:00 +36°C° 0 mm 3 mps 737 mmHg 18%
    16:00 +36°C° 0 mm 3 mps 737 mmHg 18%
    17:00 +32°C° 0 mm 2 mps 737 mmHg 24%
    18:00 +29°C° 0 mm 2 mps 737 mmHg 30%
    19:00 +26°C° 0 mm 1 mps 737 mmHg 35%
    20:00 +25°C° 0 mm 1 mps 737 mmHg 36%
    21:00 +25°C° 0 mm 1 mps 738 mmHg 37%
    22:00 +24°C° 0 mm 1 mps 738 mmHg 37%
    23:00 +24°C° 0 mm 2 mps 738 mmHg 38%
    Show more